Marco Island Airport, FL

5:29 PM EDT on April 23, 2018 (GMT -0400)
Marco Island

Weather History for KMKY - August, 2014

Change the Weather History Date:

Tuesday, August 26, 2014

  Actual Average (KAPF) Record (KAPF)
Temperature  
Mean Temperature 84 °F -  
Max Temperature 93 °F 92 °F 96 °F (1985)
Min Temperature 75 °F 73 °F 70 °F (1957)
Cooling Degree Days 19    
Growing Degree Days 34 (Base 50)    
Moisture  
Dew Point 72 °F    
Average Humidity 69    
Maximum Humidity 89    
Minimum Humidity 46    
Precipitation  
Precipitation 0.00 in - - ()
Sea Level Pressure  
Sea Level Pressure 29.85 in    
Wind  
Wind Speed 9 mph (NE)    
Max Wind Speed 18 mph    
Max Gust Speed 24 mph    
Visibility 10 miles    
Events      
Averages and records for this station are not official NWS values.
T = Trace of Precipitation, MM = Missing Value Source: NWS Daily Summary

Daily Weather History Graph

Daily Weather History Graph

Search for Another Location

Airport or City:

Astronomy

Aug. 26, 2014 Rise Set
Actual Time 7:04 AM EDT 7:52 PM EDT
Civil Twilight 6:40 AM EDT 8:15 PM EDT
Nautical Twilight 6:12 AM EDT 8:43 PM EDT
Astronomical Twilight 5:44 AM EDT 9:11 PM EDT
Moon 7:53 AM EDT (8/26) 8:25 PM EDT (8/26)
Length of Visible Light 13h 35m
Length of Day
12h 47m
New Moon, 1% of the Moon is Illuminated
Aug 26
New Moon
Sep 2
First Quarter
Sep 8
Full
Sep 15
Last Quarter
Sep 24
New

Hourly Weather History & Observations

Time (EDT) Temp. Heat Index Dew Point Humidity Pressure Visibility Wind Dir Wind Speed Gust Speed Precip Events Conditions
12:15 AM 78.8 °F - 73.4 °F 83% 29.82 in 10.0 mi NE 6.9 mph - N/A   Clear
12:35 AM 78.8 °F - 73.4 °F 83% 29.83 in 10.0 mi NNE 5.8 mph - N/A   Clear
12:55 AM 78.8 °F - 73.4 °F 83% 29.82 in 10.0 mi NNE 5.8 mph - N/A   Clear
1:15 AM 78.8 °F - 73.4 °F 83% 29.82 in 10.0 mi NNE 5.8 mph - N/A   Clear
1:35 AM 78.8 °F - 73.4 °F 83% 29.82 in 10.0 mi North 8.1 mph - N/A   Clear
1:55 AM 78.8 °F - 73.4 °F 83% 29.82 in 10.0 mi North 8.1 mph - N/A   Clear
2:15 AM 78.8 °F - 73.4 °F 83% 29.82 in 10.0 mi North 6.9 mph - N/A   Clear
2:35 AM 77.0 °F - 73.4 °F 89% 29.82 in 10.0 mi NNE 6.9 mph - N/A   Clear
2:55 AM 77.0 °F - 73.4 °F 89% 29.81 in 10.0 mi NNE 8.1 mph - N/A   Clear
3:15 AM 77.0 °F - 73.4 °F 89% 29.81 in 10.0 mi NNE 9.2 mph - N/A   Scattered Clouds
3:35 AM 77.0 °F - 73.4 °F 89% 29.81 in 10.0 mi NNE 6.9 mph - N/A   Mostly Cloudy
3:55 AM 77.0 °F - 73.4 °F 89% 29.80 in 10.0 mi NNE 6.9 mph - N/A   Mostly Cloudy
4:15 AM 77.0 °F - 73.4 °F 89% 29.79 in 10.0 mi NE 8.1 mph - N/A   Overcast
4:35 AM 77.0 °F - 71.6 °F 83% 29.80 in 10.0 mi NNE 8.1 mph - N/A   Overcast
4:55 AM 77.0 °F - 71.6 °F 83% 29.80 in 10.0 mi NNE 6.9 mph - N/A   Mostly Cloudy
5:15 AM 77.0 °F - 71.6 °F 83% 29.81 in 10.0 mi North 6.9 mph - N/A   Clear
5:35 AM 75.2 °F - 71.6 °F 89% 29.81 in 10.0 mi North 6.9 mph - N/A   Partly Cloudy
5:55 AM 75.2 °F - 71.6 °F 89% 29.82 in 10.0 mi North 6.9 mph - N/A   Partly Cloudy
6:15 AM 75.2 °F - 71.6 °F 89% 29.82 in 10.0 mi North 5.8 mph - N/A   Clear
6:35 AM 75.2 °F - 71.6 °F 89% 29.82 in 10.0 mi NNE 8.1 mph - N/A   Clear
6:55 AM 75.2 °F - 71.6 °F 89% 29.82 in 10.0 mi NNE 8.1 mph - N/A   Clear
7:15 AM 75.2 °F - 71.6 °F 89% 29.83 in 9.0 mi NNE 6.9 mph - N/A   Clear
7:35 AM 75.2 °F - 71.6 °F 89% 29.84 in 10.0 mi NNE 8.1 mph - N/A   Clear
7:55 AM 77.0 °F - 71.6 °F 83% 29.84 in 10.0 mi NE 8.1 mph - N/A   Clear
8:15 AM 77.0 °F - 71.6 °F 83% 29.84 in 10.0 mi NE 8.1 mph - N/A   Clear
8:35 AM 78.8 °F - 73.4 °F 83% 29.85 in 10.0 mi NE 6.9 mph - N/A   Clear
8:55 AM 80.6 °F 85.4 °F 73.4 °F 79% 29.85 in 10.0 mi NE 9.2 mph - N/A   Clear
9:15 AM 82.4 °F 88.2 °F 73.4 °F 74% 29.85 in 10.0 mi NE 11.5 mph 17.3 mph N/A   Clear
10:15 AM - - - N/A% 29.86 in - ENE 11.5 mph 17.3 mph N/A   Unknown
10:35 AM 86.0 °F 95.1 °F 75.2 °F 70% 29.87 in 10.0 mi NE 15.0 mph 21.9 mph N/A   Unknown
10:55 AM 87.8 °F 97.6 °F 75.2 °F 66% 29.87 in 10.0 mi ENE 11.5 mph 16.1 mph N/A   Unknown
11:15 AM 87.8 °F 95.6 °F 73.4 °F 62% 29.87 in 10.0 mi ENE 13.8 mph 20.7 mph N/A   Unknown
11:35 AM 89.6 °F 98.2 °F 73.4 °F 59% 29.88 in 10.0 mi NE 15.0 mph 24.2 mph N/A   Partly Cloudy
11:55 AM 89.6 °F 96.2 °F 71.6 °F 55% 29.87 in 10.0 mi NE 15.0 mph 20.7 mph N/A   Scattered Clouds
12:15 PM 91.4 °F 98.4 °F 71.6 °F 52% 29.87 in 10.0 mi ENE 11.5 mph 18.4 mph N/A   Partly Cloudy
12:35 PM 91.4 °F 98.4 °F 71.6 °F 52% 29.87 in 10.0 mi ENE 13.8 mph 19.6 mph N/A   Partly Cloudy
12:55 PM 91.4 °F 98.4 °F 71.6 °F 52% 29.87 in 10.0 mi ENE 11.5 mph 18.4 mph N/A   Clear
1:15 PM 91.4 °F 98.4 °F 71.6 °F 52% 29.86 in 10.0 mi NE 15.0 mph - N/A   Scattered Clouds
1:35 PM 93.2 °F 98.8 °F 69.8 °F 46% 29.86 in 10.0 mi ENE 15.0 mph 19.6 mph N/A   Partly Cloudy
1:55 PM 93.2 °F 100.5 °F 71.6 °F 49% 29.86 in 10.0 mi NE 11.5 mph 17.3 mph N/A   Partly Cloudy
2:15 PM 93.2 °F 98.8 °F 69.8 °F 46% 29.86 in 10.0 mi ENE 12.7 mph 16.1 mph N/A   Scattered Clouds
2:35 PM 93.2 °F 100.5 °F 71.6 °F 49% 29.85 in 10.0 mi NE 11.5 mph 19.6 mph N/A   Clear
2:55 PM 93.2 °F 100.5 °F 71.6 °F 49% 29.85 in 10.0 mi NE 13.8 mph 19.6 mph N/A   Clear
3:15 PM 93.2 °F 100.5 °F 71.6 °F 49% 29.85 in 10.0 mi NE 10.4 mph - N/A   Partly Cloudy
3:35 PM 91.4 °F 98.4 °F 71.6 °F 52% 29.84 in 10.0 mi ENE 11.5 mph - N/A   Scattered Clouds
3:55 PM 93.2 °F 98.8 °F 69.8 °F 46% 29.84 in 10.0 mi NE 16.1 mph 19.6 mph N/A   Clear
4:15 PM 93.2 °F 98.8 °F 69.8 °F 46% 29.84 in 10.0 mi ENE 15.0 mph 19.6 mph N/A   Partly Cloudy
4:35 PM 93.2 °F 98.8 °F 69.8 °F 46% 29.84 in 10.0 mi NE 18.4 mph 21.9 mph N/A   Clear
5:15 PM 93.2 °F 98.8 °F 69.8 °F 46% 29.84 in 10.0 mi ENE 16.1 mph 21.9 mph N/A   Partly Cloudy
5:35 PM 91.4 °F 98.4 °F 71.6 °F 52% 29.83 in 10.0 mi NE 10.4 mph 17.3 mph N/A   Partly Cloudy
5:55 PM 91.4 °F 96.8 °F 69.8 °F 49% 29.84 in 10.0 mi ENE 12.7 mph 20.7 mph N/A   Clear
6:15 PM 91.4 °F 95.4 °F 68.0 °F 46% 29.84 in 10.0 mi ENE 12.7 mph - N/A   Clear
6:35 PM 91.4 °F 96.8 °F 69.8 °F 49% 29.84 in 10.0 mi ENE 12.7 mph 18.4 mph N/A   Clear
6:55 PM 89.6 °F 96.2 °F 71.6 °F 55% 29.84 in 10.0 mi NE 12.7 mph 20.7 mph N/A   Clear
7:15 PM 89.6 °F 96.2 °F 71.6 °F 55% 29.85 in 10.0 mi NE 10.4 mph - N/A   Clear
7:35 PM 87.8 °F 93.8 °F 71.6 °F 58% 29.86 in 10.0 mi NE 10.4 mph - N/A   Clear
7:55 PM 86.0 °F 90.4 °F 69.8 °F 58% 29.87 in 10.0 mi NE 9.2 mph - N/A   Clear
8:15 PM 84.2 °F 88.4 °F 69.8 °F 62% 29.87 in 10.0 mi NE 8.1 mph - N/A   Clear
8:35 PM 84.2 °F 88.4 °F 69.8 °F 62% 29.88 in 10.0 mi NE 8.1 mph - N/A   Clear
8:55 PM 82.4 °F 86.3 °F 69.8 °F 66% 29.89 in 10.0 mi NE 8.1 mph - N/A   Clear
9:15 PM 82.4 °F 86.3 °F 69.8 °F 66% 29.90 in 10.0 mi NE 9.2 mph - N/A   Clear
9:35 PM 80.6 °F 83.9 °F 69.8 °F 70% 29.90 in 10.0 mi ENE 6.9 mph - N/A   Clear
9:55 PM 80.6 °F 84.6 °F 71.6 °F 74% 29.91 in 10.0 mi NE 5.8 mph - N/A   Clear
10:15 PM 78.8 °F - 71.6 °F 78% 29.91 in 10.0 mi ENE 6.9 mph - N/A   Clear
10:35 PM 78.8 °F - 71.6 °F 78% 29.91 in 10.0 mi ENE 8.1 mph - N/A   Clear
10:55 PM 78.8 °F - 71.6 °F 78% 29.92 in 10.0 mi ENE 5.8 mph - N/A   Clear
11:15 PM 78.8 °F - 71.6 °F 78% 29.92 in 10.0 mi ENE 6.9 mph - N/A   Clear
11:35 PM 78.8 °F - 71.6 °F 78% 29.92 in 10.0 mi ENE 6.9 mph - N/A   Clear
11:55 PM 78.8 °F - 71.6 °F 78% 29.92 in 10.0 mi NE 5.8 mph - N/A   Clear